Location: Catstown
(52.4386°N, 7.2633°W)
Time: 14:15:53
(UTC+00:00)

NOSS 3-2 (C) - Pass Details

Date: 18 September 2020
Orbit: 795 x 1418 km, 63.4° (Epoch: 25 October)

Event Time Altitude Azimuth Distance (km) Brightness Sun altitude
Rises 20:31:27 0° 313° (NW) 3,880 8.1 -17.7°
Reaches altitude 10° 20:33:57 10° 313° (NW) 3,006 7.2 -18.1°
Maximum altitude 20:41:16 85° 227° (SW) 1,259 4.0 -19.0°
Enters shadow 20:46:12 27° 140° (SE) 2,282 4.9 -19.7°
